TimeCST,TemperatureF,Dew PointF,Humidity,Sea Level PressureIn,VisibilityMPH,Wind Direction,Wind SpeedMPH,Gust SpeedMPH,PrecipitationIn,Events,Conditions,WindDirDegrees,DateUTC
12:52 AM,34.0,28.0,79,30.25,10.0,NNW,9.2,-,N/A,,Clear,330,2013-01-24 06:52:00
1:52 AM,32.0,26.1,79,30.28,10.0,NW,5.8,-,N/A,,Clear,320,2013-01-24 07:52:00
2:52 AM,30.9,21.0,67,30.31,10.0,North,15.0,-,N/A,,Clear,350,2013-01-24 08:52:00
3:52 AM,28.9,21.0,72,30.33,10.0,North,10.4,-,N/A,,Clear,360,2013-01-24 09:52:00
4:52 AM,27.0,18.0,69,30.37,10.0,North,11.5,-,N/A,,Clear,10,2013-01-24 10:52:00
5:52 AM,26.1,17.1,69,30.41,10.0,North,12.7,-,N/A,,Clear,10,2013-01-24 11:52:00
6:52 AM,24.1,12.9,62,30.46,10.0,NNE,9.2,-,N/A,,Clear,20,2013-01-24 12:52:00
7:52 AM,24.1,12.0,60,30.49,10.0,NNE,13.8,-,N/A,,Clear,20,2013-01-24 13:52:00
8:52 AM,24.1,12.9,62,30.51,10.0,NE,12.7,-,N/A,,Clear,40,2013-01-24 14:52:00
9:52 AM,27.0,14.0,58,30.53,10.0,NE,11.5,-,N/A,,Clear,50,2013-01-24 15:52:00
10:52 AM,28.9,12.9,51,30.55,10.0,ENE,12.7,20.7,N/A,,Clear,60,2013-01-24 16:52:00
11:52 AM,30.9,12.0,46,30.51,10.0,East,12.7,-,N/A,,Clear,80,2013-01-24 17:52:00
12:52 PM,32.0,10.0,40,30.48,10.0,ENE,15.0,21.9,N/A,,Clear,60,2013-01-24 18:52:00
1:52 PM,33.1,9.0,37,30.46,10.0,East,10.4,-,N/A,,Clear,80,2013-01-24 19:52:00
2:52 PM,33.1,10.0,38,30.45,10.0,ENE,11.5,-,N/A,,Clear,70,2013-01-24 20:52:00
3:52 PM,33.1,9.0,37,30.44,10.0,North,-9999.0,-,N/A,,Unknown,0,2013-01-24 21:52:00
4:52 PM,30.0,7.0,38,30.44,10.0,East,11.5,-,N/A,,Clear,100,2013-01-24 22:52:00
5:52 PM,28.9,8.1,41,30.44,10.0,East,9.2,-,N/A,,Clear,90,2013-01-24 23:52:00
6:52 PM,28.0,9.0,45,30.43,10.0,East,9.2,-,N/A,,Clear,90,2013-01-25 00:52:00
7:52 PM,27.0,6.1,41,30.40,10.0,East,11.5,-,N/A,,Clear,80,2013-01-25 01:52:00
8:52 PM,28.0,6.1,39,30.38,10.0,East,9.2,-,N/A,,Overcast,90,2013-01-25 02:52:00
9:52 PM,28.0,6.1,39,30.36,10.0,East,11.5,-,N/A,,Overcast,100,2013-01-25 03:52:00
10:52 PM,28.0,6.1,39,30.34,10.0,East,8.1,-,N/A,,Overcast,100,2013-01-25 04:52:00
11:52 PM,28.9,7.0,40,30.31,10.0,East,8.1,-,N/A,,Overcast,100,2013-01-25 05:52:00